GLOBALSTAR M063 [+]

Last updated on Fri Dec 29 2023 00:02:56 GMT+0000 (Coordinated Universal Time)

1 26081U 00008A 23362.46102014 -.00000064 00000+0 27784-3 0 9990 2 26081 51.9961 85.0876 0004122 15.0516 66.2424 11.86148837 93947
UTC large
Height (km)
Speed (km/s)
/
Latitude / Longitude
Inclination (degrees)
Orbital Period (minutes)
Azimuth
Elevation
Range (km)
Doppler Factor

Next 0 passes for location: London (51.5072 / 0.1276)

Sorry there are no passes over London.